Find Local Weather

World > North America > United States > Idaho

Grays Lake National Wildlife Refuge, Idaho Regional Weather

Lat: 43.06N, Lon: 111.43W
Wx Zone: IDZ023
Feedback
Expires:201804220400;;311040
ASUS45 KBOI 220310
RWRID 

IDAHO REGIONAL WEATHER ROUNDUP
NATIONAL WEATHER SERVICE BOISE ID
900 PM MDT SAT APR 21 2018

NOTE: "FAIR" INDICATES FEW OR NO CLOUDS BELOW 12000 FEET
WITH NO SIGNIFICANT WEATHER AND/OR OBSTRUCTIONS TO VISIBILITY


IDZ019>023-220400-
SOUTHEAST IDAHO

  
CITY           SKY/WX    TMP DP  RH WIND       PRES   REMARKS
IDAHO FALLS    CLEAR     60  33  36 SW15      30.09R                  
POCATELLO      CLEAR     60  32  34 SW14      30.11R                  
REXBURG        CLEAR     59  33  37 S10       30.07R                  
$$


SKY/WX - Weather  TMP - Temperature  DP - Dewpoint  RH - Relative Humidity
WIND - Wind Direction/Speed PRES - Barometric Pressure